sat.trackr.live / text

‹ back to catalog

UNKNOWN

NORAD 81301

UNKNOWN UNKNOWN UNKNOWN

§ Identity

Operator
Country
Launch date
Launch site
Launch vehicle
Mass (kg)
RCS (m²)

External: N2YO · Heavens-Above

§ Orbital elements

Epoch: 2026-09-18T12:22:50.871648Z

Period
104.59 min
Inclination
66.7611°
Eccentricity
0.0084153
Mean motion
13.76860139 rev/d
Perigee alt
913.2 km
Apogee alt
1,036.9 km
Semi-major
7,353.2 km
B*
2.0156e-4
RAAN
347.5696°
Arg perigee
38.9409°
Mean anomaly
334.8364°
Rev number
64,487

§ Raw data

UNKNOWN1 81301U          26261.51586657  .00000130  00000+0  20156-3 0  99932 81301  66.7611 347.5696 0084153  38.9409 334.8364 13.76860139644870

JSON: /api/v1/satellites/81301 · /tle

For live sub-satellite position, see the globe view (requires WebGL).

§ Visibility from observer

Set your observer location to see the next 7 days of passes ≥ 10°. The values pass through the URL so the page stays shareable.

No JS? Fill the form by hand. The geolocation button needs JavaScript.